CASE2 Weather Reports


time (UTC)temp
C
wind
direction
speed
KPH
gust
KPH
rain 1hr
cm
rain 24hr
cm
rain mn
cm
humidity
%
barometer
mb
20260507194536 8 324 0.0 0.0 0.00 0.00 0.00 79 1018.7
20260507193031 8 324 0.0 1.6 0.00 0.00 0.00 78 1018.6
20260507191530 8 324 0.0 0.0 0.00 0.00 0.00 76 1018.3
20260507190028 9 324 0.0 0.0 0.00 0.00 0.00 75 1018.1
20260507184525 9 324 0.0 0.0 0.00 0.00 0.00 73 1017.9
20260507183025 10 324 0.0 0.0 0.00 0.00 0.00 71 1017.9
20260507181524 10 324 0.0 0.0 0.00 0.00 0.00 71 1017.8
20260507180013 10 324 0.0 1.6 0.00 0.00 0.00 69 1017.7
20260507174515 11 324 0.0 4.8 0.00 0.00 0.00 69 1017.6
20260507173016 11 360 0.0 1.6 0.00 0.00 0.00 68 1017.5
20260507171508 11 321 0.0 6.4 0.00 0.00 0.00 69 1017.3
20260507170007 11 325 0.0 6.4 0.00 0.00 0.00 66 1017.1
20260507164507 11 360 0.0 4.8 0.00 0.00 0.00 63 1017.0
20260507163006 12 333 0.0 3.2 0.00 0.00 0.00 66 1017.2
20260507161505 12 360 0.0 4.8 0.00 0.00 0.00 65 1017.2
20260507160113 12 326 0.0 6.4 0.00 0.00 0.00 66 1017.2
20260507154551 12 304 0.0 6.4 0.00 0.00 0.00 66 1017.3
20260507153050 12 333 0.0 11.3 0.00 0.00 0.00 65 1017.2
20260507151556 12 311 0.0 4.8 0.00 0.00 0.00 64 1017.2
20260507150048 12 306 0.0 9.7 0.00 0.00 0.00 65 1017.2
20260507144547 12 316 0.0 4.8 0.00 0.00 0.00 64 1017.2
20260507143045 12 17 0.0 8.0 0.00 0.00 0.00 66 1017.2
20260507141543 12 295 1.6 8.0 0.00 0.00 0.00 67 1017.2
20260507140041 12 360 0.0 4.8 0.00 0.00 0.00 68 1017.3
20260507134531 12 281 0.0 8.0 0.00 0.00 0.00 68 1017.3
20260507133033 12 304 0.0 6.4 0.00 0.00 0.00 69 1017.3
20260507131548 12 313 0.0 6.4 0.00 0.00 0.00 70 1017.2
20260507130027 12 302 0.0 6.4 0.00 0.00 0.00 68 1017.1
20260507124525 12 333 0.0 6.4 0.00 0.00 0.00 69 1017.0
20260507123028 12 9 0.0 6.4 0.00 0.00 0.00 69 1016.9
20260507121522 12 348 1.6 6.4 0.00 0.00 0.00 67 1016.9
20260507120022 12 347 0.0 6.4 0.00 0.00 0.00 69 1016.7
20260507114508 12 349 0.0 4.8 0.00 0.00 0.00 69 1016.9
20260507113007 12 320 0.0 6.4 0.00 0.00 0.00 72 1016.7
20260507111507 12 321 0.0 4.8 0.00 0.00 0.00 71 1016.7
20260507110006 12 306 0.0 6.4 0.00 0.00 0.00 72 1016.8
20260507104505 12 344 0.0 4.8 0.00 0.00 0.00 73 1016.7
20260507103002 12 327 0.0 3.2 0.00 0.00 0.00 73 1016.7
20260507101601 12 331 0.0 4.8 0.00 0.00 0.00 73 1016.6
20260507100100 12 330 0.0 4.8 0.00 0.00 0.00 74 1016.5
20260507094605 12 300 1.6 6.4 0.00 0.00 0.00 73 1016.4
20260507093041 12 317 0.0 6.4 0.00 0.00 0.00 72 1016.3
20260507091541 12 9 0.0 6.4 0.00 0.00 0.00 73 1016.2
20260507090035 12 309 0.0 6.4 0.00 0.00 0.00 72 1016.1
20260507084546 12 302 0.0 6.4 0.00 0.00 0.00 74 1016.0
20260507083029 12 349 0.0 8.0 0.00 0.00 0.00 73 1016.0
20260507081528 12 344 0.0 6.4 0.00 0.00 0.00 75 1015.7
20260507080023 11 5 0.0 6.4 0.00 0.00 0.00 76 1015.6
20260507074521 11 305 0.0 6.4 0.00 0.00 0.00 78 1015.6
20260507073004 10 360 0.0 3.2 0.00 0.00 0.00 79 1015.4
20260507071507 10 266 0.0 4.8 0.00 0.00 0.00 79 1015.3
20260507070110 10 38 0.0 8.0 0.00 0.00 0.00 80 1015.3
20260507064559 9 257 0.0 8.0 0.00 0.00 0.00 81 1015.2
20260507063055 8 258 0.0 11.3 0.00 0.00 0.00 83 1015.1
20260507061549 8 360 0.0 6.4 0.00 0.00 0.00 88 1015.0
20260507060046 7 227 0.0 9.7 0.00 0.00 0.00 91 1015.0
20260507054542 6 360 1.6 8.0 0.00 0.00 0.00 93 1015.0
20260507053028 6 219 0.0 1.6 0.00 0.00 0.00 93 1015.0
20260507051521 5 219 0.0 1.6 0.00 0.00 0.00 94 1014.9
20260507050036 3 219 0.0 0.0 0.00 0.00 0.00 93 1014.8
20260507044519 2 219 0.0 0.0 0.00 0.00 0.00 93 1014.7
20260507043008 2 219 0.0 0.0 0.00 0.00 0.00 93 1014.6
20260507041505 1 219 0.0 0.0 0.00 0.00 0.00 93 1014.5
20260507040002 1 219 0.0 0.0 0.00 0.00 0.00 93 1014.4
20260507034607 1 219 0.0 0.0 0.00 0.00 0.00 93 1014.4
20260507033102 1 219 0.0 0.0 0.00 0.00 0.00 92 1014.3
20260507031543 0 219 0.0 0.0 0.00 0.00 0.00 92 1014.2
20260507030044 0 219 0.0 0.0 0.00 0.00 0.00 92 1014.2
20260507024545 0 219 0.0 0.0 0.00 0.00 0.00 92 1014.0
20260507023038 1 219 0.0 0.0 0.00 0.00 0.00 92 1014.0
20260507021548 1 219 0.0 0.0 0.00 0.00 0.00 92 1013.9
20260507020034 1 219 0.0 0.0 0.00 0.00 0.00 91 1013.9
20260507014532 1 219 0.0 0.0 0.00 0.00 0.00 91 1013.7
20260507013033 2 219 0.0 0.0 0.00 0.00 0.00 91 1013.6
20260507011522 2 219 0.0 0.0 0.00 0.00 0.00 91 1013.6
20260507010026 2 219 0.0 0.0 0.00 0.00 0.00 91 1013.5
20260507004509 3 219 0.0 0.0 0.00 0.00 0.00 91 1013.5
20260507003007 3 219 0.0 0.0 0.00 0.00 0.00 90 1013.5
20260507001506 3 219 0.0 1.6 0.00 0.00 0.00 91 1013.4
20260507000003 3 219 0.0 0.0 0.00 0.00 0.00 90 1013.4
20260506234502 3 219 0.0 3.2 0.00 0.00 0.00 90 1013.2
20260506233002 4 219 0.0 1.6 0.00 0.00 0.00 90 1013.2
20260506231549 3 219 0.0 1.6 0.00 0.00 0.00 89 1013.2
20260506230050 3 219 0.0 0.0 0.00 0.00 0.00 88 1013.2
20260506224547 4 219 0.0 1.6 0.00 0.00 0.00 87 1013.2
20260506223048 5 219 0.0 1.6 0.00 0.00 0.00 87 1013.3
20260506221543 5 219 0.0 0.0 0.00 0.00 0.00 86 1013.2
20260506220040 5 219 0.0 1.6 0.00 0.00 0.00 85 1013.2
20260506214541 5 219 0.0 3.2 0.00 0.00 0.00 84 1013.1
20260506213036 5 219 0.0 1.6 0.00 0.00 0.00 82 1013.0
20260506211515 6 219 0.0 1.6 0.00 0.00 0.00 80 1012.9
20260506210012 6 219 0.0 3.2 0.00 0.00 0.00 78 1012.8
20260506204601 6 202 0.0 1.6 0.00 0.00 0.00 76 1012.7
20260506203055 7 202 0.0 4.8 0.00 0.00 0.00 74 1012.6
20260506201557 7 198 0.0 0.0 0.00 0.00 0.00 71 1012.4
20260506200108 7 198 0.0 0.0 0.00 0.00 0.00 69 1012.4